Location: Cicognara
(44.9500°N, 10.4667°E)
Time: 06:45:53
(UTC+00:00)

Meteor 1-27 - Visible Passes

Search period start: 26 October 2021 00:00
Search period end: 05 November 2021 00:00
Orbit: 837 x 894 km, 81.2° (Epoch: 25 October)

Date Brightness Start Highest point End Pass type
(mag) Time Alt. Az. Time Alt. Az. Time Alt. Az.
27 Oct 6.8 05:11:10 10° NNE 05:14:31 16° ENE 05:17:52 10° E visible
28 Oct 6.8 05:03:30 10° NNE 05:06:52 16° ENE 05:10:14 10° E visible
29 Oct 6.8 04:55:51 10° NNE 04:59:13 16° ENE 05:02:36 10° E visible
30 Oct 6.8 04:48:11 10° NNE 04:51:34 16° ENE 04:54:58 10° E visible
31 Oct 6.9 04:40:31 10° NNE 04:43:56 16° ENE 04:47:21 10° E visible
01 Nov 6.9 04:32:52 10° NNE 04:36:17 16° ENE 04:39:42 10° E visible
02 Nov 6.9 04:25:12 10° NNE 04:28:38 16° ENE 04:32:04 10° E visible
03 Nov 6.9 04:17:33 10° NNE 04:20:59 16° ENE 04:24:26 10° E visible
04 Nov 6.9 04:09:53 10° NNE 04:13:20 16° ENE 04:16:48 10° E visible
04 Nov 6.6 19:05:09 10° SSW 19:05:30 12° SSW 19:05:30 12° SSW visible
